GW4891 Weather Reports


time (UTC)temp
F
wind
direction
speed
knots
gust
knots
rain 1hr
in
rain 24hr
in
rain mn
in
humidity
%
barometer
mb
20260505153232 52 93 4.3 6.1 0.00 0.00 0.00 36 1013.7
20260505152730 51 117 0.0 0.0 0.00 0.00 0.00 36 1013.8
20260505152226 51 140 1.7 1.7 0.00 0.00 0.00 37 1013.8
20260505151720 50 144 0.9 2.6 0.00 0.00 0.00 38 1013.9
20260505151218 51 86 1.7 2.6 0.00 0.00 0.00 37 1013.9
20260505150714 51 150 0.9 1.7 0.00 0.00 0.00 37 1014.2
20260505150212 52 58 2.6 2.6 0.00 0.00 0.00 38 1014.2
20260505140645 51 155 0.0 0.9 0.00 0.00 0.00 51 1014.2
20260505140142 51 138 0.9 2.6 0.00 0.00 0.00 50 1014.1
20260505130105 49 93 0.0 0.0 0.00 0.00 0.00 51 1014.3
20260505124555 46 109 0.0 0.0 0.00 0.00 0.00 53 1014.3
20260505124051 46 130 0.0 0.0 0.00 0.00 0.00 53 1014.3
20260505123548 45 123 0.0 0.0 0.00 0.00 0.00 53 1014.4
20260505123044 45 115 0.0 0.0 0.00 0.00 0.00 53 1014.3
20260505122541 45 124 0.0 0.0 0.00 0.00 0.00 53 1014.2
20260505122038 45 118 0.0 0.0 0.00 0.00 0.00 53 1014.4
20260505121534 45 112 0.0 0.0 0.00 0.00 0.00 53 1014.4
20260505121031 45 108 0.0 0.0 0.00 0.00 0.00 52 1014.4
20260505120528 45 105 0.0 0.9 0.00 0.00 0.00 52 1014.2
20260505120023 44 115 0.0 0.9 0.00 0.00 0.00 53 1014.2
20260505115518 44 84 0.0 0.0 0.00 0.00 0.00 53 1013.9
20260505115016 44 115 0.0 0.0 0.00 0.00 0.00 52 1014.2
20260505114513 45 109 0.0 0.9 0.00 0.00 0.00 52 1013.9
20260505114009 45 92 0.0 0.0 0.00 0.00 0.00 51 1013.8
20260505113506 45 107 0.0 0.0 0.00 0.00 0.00 52 1013.9
20260505113001 45 115 0.0 0.9 0.00 0.00 0.00 51 1014.2
20260505112458 46 79 0.9 0.9 0.00 0.00 0.00 49 1014.3
20260505111955 46 48 1.7 2.6 0.00 0.00 0.00 50 1014.2
20260505111449 46 79 0.0 0.0 0.00 0.00 0.00 50 1014.2
20260505110946 46 83 0.0 0.0 0.00 0.00 0.00 49 1014.4
20260505110443 45 110 0.0 0.0 0.00 0.00 0.00 50 1014.4
20260505101908 46 99 0.0 0.9 0.00 0.00 0.00 49 1014.4
20260505101402 46 129 0.0 0.0 0.00 0.00 0.00 49 1014.2
20260505100859 46 111 0.0 0.0 0.00 0.00 0.00 48 1014.2
20260505100355 46 109 0.0 0.9 0.00 0.00 0.00 48 1014.2
20260505095851 46 109 0.0 0.9 0.00 0.00 0.00 48 1014.1
20260505095349 47 115 0.0 1.7 0.00 0.00 0.00 47 1013.9
20260505094845 46 107 0.0 0.0 0.00 0.00 0.00 48 1014.2
20260505094342 46 111 0.0 0.0 0.00 0.00 0.00 48 1014.1
20260505093837 46 129 0.0 0.0 0.00 0.00 0.00 47 1014.1
20260505093335 47 120 0.0 0.0 0.00 0.00 0.00 47 1014.1
20260505092832 47 124 0.0 0.0 0.00 0.00 0.00 47 1013.9
20260505092330 47 91 0.0 0.0 0.00 0.00 0.00 47 1013.9
20260505091827 48 107 0.0 0.0 0.00 0.00 0.00 45 1014.1
20260505091325 48 88 0.9 0.9 0.00 0.00 0.00 45 1014.1
20260505090823 48 75 0.9 1.7 0.00 0.00 0.00 45 1014.4
20260505090321 47 94 0.0 0.0 0.00 0.00 0.00 47 1014.4
20260505085818 47 112 0.0 0.0 0.00 0.00 0.00 46 1014.4
20260505085316 47 148 0.0 0.9 0.00 0.00 0.00 46 1014.8
20260505084813 47 77 0.9 0.9 0.00 0.00 0.00 46 1014.5
20260505084312 48 115 0.0 0.0 0.00 0.00 0.00 45 1014.8
20260505083808 48 110 0.0 0.0 0.00 0.00 0.00 45 1014.8
20260505083306 49 110 0.0 0.0 0.00 0.00 0.00 44 1015.3
20260505082802 50 131 0.0 0.0 0.00 0.00 0.00 43 1014.9
20260505082259 50 122 0.0 0.0 0.00 0.00 0.00 43 1015.0
20260505081754 49 84 0.9 1.7 0.00 0.00 0.00 43 1014.9
20260505081252 49 79 0.9 0.9 0.00 0.00 0.00 43 1015.0
20260505080748 50 93 0.0 0.9 0.00 0.00 0.00 41 1015.0
20260505080244 50 115 0.9 3.5 0.00 0.00 0.00 41 1015.0
20260505075740 50 104 0.9 0.9 0.00 0.00 0.00 42 1015.4
20260505075237 50 65 0.9 1.7 0.00 0.00 0.00 41 1015.3
20260505074735 50 115 0.0 0.9 0.00 0.00 0.00 42 1015.4
20260505074232 50 79 0.9 1.7 0.00 0.00 0.00 40 1015.2
20260505073729 49 118 0.0 0.0 0.00 0.00 0.00 40 1015.4
20260505073227 49 111 0.0 0.9 0.00 0.00 0.00 40 1015.4
20260505072723 48 115 0.0 0.9 0.00 0.00 0.00 40 1015.4
20260505072219 49 151 0.9 0.9 0.00 0.00 0.00 39 1015.5
20260505071715 49 88 0.9 1.7 0.00 0.00 0.00 39 1015.4
20260505071212 50 118 0.0 0.0 0.00 0.00 0.00 38 1015.5
20260505070710 51 106 0.9 1.7 0.00 0.00 0.00 36 1015.8
20260505070206 50 64 0.9 1.7 0.00 0.00 0.00 37 1015.4
20260505065702 49 37 0.9 1.7 0.00 0.00 0.00 38 1015.3
20260505065159 49 93 0.9 1.7 0.00 0.00 0.00 37 1015.4
20260505064656 50 57 1.7 1.7 0.00 0.00 0.00 36 1014.8
20260505064154 50 99 0.0 0.0 0.00 0.00 0.00 36 1015.0
20260505063651 50 109 0.0 0.0 0.00 0.00 0.00 36 1014.7
20260505063147 50 138 0.0 0.9 0.00 0.00 0.00 36 1014.8
20260505062643 49 139 0.0 0.9 0.00 0.00 0.00 36 1014.7
20260505062141 49 120 0.0 0.0 0.00 0.00 0.00 36 1014.7
20260505061638 49 116 0.0 0.0 0.00 0.00 0.00 36 1014.7
20260505061136 50 126 0.0 0.0 0.00 0.00 0.00 35 1014.9
20260505060633 51 124 0.0 0.0 0.00 0.00 0.00 35 1015.2
20260505060130 51 116 0.9 0.9 0.00 0.00 0.00 34 1015.0
20260505055625 51 127 1.7 2.6 0.00 0.00 0.00 34 1015.0
20260505055122 51 124 0.0 0.9 0.00 0.00 0.00 34 1015.0
20260505054619 51 147 0.9 0.9 0.00 0.00 0.00 34 1014.9
20260505054117 52 119 0.0 1.7 0.00 0.00 0.00 34 1014.9
20260505053614 52 134 0.0 0.9 0.00 0.00 0.00 33 1015.0
20260505053111 52 112 0.0 0.9 0.00 0.00 0.00 33 1015.0
20260505052608 53 125 0.0 0.9 0.00 0.00 0.00 32 1014.8
20260505052105 54 125 0.0 0.9 0.00 0.00 0.00 31 1014.9
20260505051602 54 109 0.9 2.6 0.00 0.00 0.00 31 1014.9
20260505051100 54 135 0.0 2.6 0.00 0.00 0.00 31 1014.7
20260505050558 54 159 0.9 1.7 0.00 0.00 0.00 31 1014.7
20260505041526 58 197 4.3 6.1 0.00 0.00 0.00 29 1014.4
20260505041023 57 153 0.0 2.6 0.00 0.00 0.00 31 1014.4
20260505040520 57 125 0.9 1.7 0.00 0.00 0.00 31 1014.3
20260505040017 57 146 0.9 2.6 0.00 0.00 0.00 32 1014.4
20260505035513 55 132 0.0 0.0 0.00 0.00 0.00 34 1014.3
20260505035010 55 146 0.0 0.0 0.00 0.00 0.00 34 1014.1
20260505034507 53 142 0.0 0.0 0.00 0.00 0.00 36 1013.8
20260505034004 54 126 0.0 0.0 0.00 0.00 0.00 34 1014.1
20260505033500 53 96 0.9 0.9 0.00 0.00 0.00 34 1013.8
20260505032959 54 122 0.0 0.0 0.00 0.00 0.00 34 1013.6
20260505032456 54 114 0.0 0.0 0.00 0.00 0.00 34 1013.7
20260505031952 54 87 0.0 0.9 0.00 0.00 0.00 34 1013.9
20260505031449 54 112 0.0 0.9 0.00 0.00 0.00 34 1013.8
20260505030946 55 118 0.0 0.0 0.00 0.00 0.00 33 1013.8
20260505030442 56 108 0.0 0.9 0.00 0.00 0.00 32 1013.7
20260505025937 56 99 0.0 0.9 0.00 0.00 0.00 32 1013.8
20260505025435 57 123 0.0 0.0 0.00 0.00 0.00 31 1013.6
20260505024934 57 108 0.0 0.9 0.00 0.00 0.00 31 1013.6
20260505024431 57 110 0.0 0.0 0.00 0.00 0.00 31 1013.4
20260505023928 57 115 0.0 0.0 0.00 0.00 0.00 30 1013.4
20260505023425 58 117 0.0 0.0 0.00 0.00 0.00 30 1013.4
20260505022922 58 120 0.0 0.0 0.00 0.00 0.00 30 1013.6
20260505022420 58 124 0.0 0.0 0.00 0.00 0.00 29 1013.6
20260505021916 59 116 0.0 0.0 0.00 0.00 0.00 29 1013.8
20260505021413 59 147 0.9 2.6 0.00 0.00 0.00 29 1013.6
20260505020908 59 159 0.0 1.7 0.00 0.00 0.00 28 1013.7
20260505020404 59 133 0.9 0.9 0.00 0.00 0.00 28 1013.6
20260505015901 59 115 0.9 0.9 0.00 0.00 0.00 28 1013.7
20260505015358 59 130 0.0 2.6 0.00 0.00 0.00 27 1013.4
20260505014856 60 129 1.7 2.6 0.00 0.00 0.00 27 1013.6
20260505014352 60 172 1.7 1.7 0.00 0.00 0.00 27 1013.7
20260505013849 60 153 0.9 2.6 0.00 0.00 0.00 26 1013.3
20260505013346 60 108 1.7 3.5 0.00 0.00 0.00 26 1013.4
20260505012845 60 126 0.0 3.5 0.00 0.00 0.00 25 1013.6
20260505012342 61 160 1.7 2.6 0.00 0.00 0.00 25 1013.6
20260505011838 61 215 0.0 2.6 0.00 0.00 0.00 25 1013.3
20260505011335 61 148 4.3 7.8 0.00 0.00 0.00 24 1013.3
20260505010831 62 168 1.7 7.8 0.00 0.00 0.00 24 1013.3
20260505010327 62 116 0.9 9.6 0.00 0.00 0.00 24 1013.3
20260505005823 62 122 0.9 1.7 0.00 0.00 0.00 25 1012.9
20260505005320 62 137 0.0 6.1 0.00 0.00 0.00 24 1013.1
20260505004818 63 153 0.9 1.7 0.00 0.00 0.00 24 1013.1
20260505004314 63 269 2.6 3.5 0.00 0.00 0.00 24 1013.2
20260505003812 63 207 1.7 3.5 0.00 0.00 0.00 24 1013.4
20260505003309 64 182 2.6 3.5 0.00 0.00 0.00 23 1013.4
20260505002804 64 198 1.7 2.6 0.00 0.00 0.00 22 1013.4
20260505002303 64 185 1.7 2.6 0.00 0.00 0.00 22 1013.4
20260505001800 64 188 2.6 3.5 0.00 0.00 0.00 21 1013.4
20260505001257 64 249 0.9 7.0 0.00 0.00 0.00 21 1013.4
20260505000754 65 217 5.2 9.6 0.00 0.00 0.00 20 1013.6
20260505000252 65 164 1.7 2.6 0.00 0.00 0.00 20 1013.3
20260504235748 65 151 1.7 2.6 0.00 0.00 0.00 19 1013.4
20260504235244 64 355 3.5 6.1 0.00 0.00 0.00 19 1013.2
20260504234742 64 217 1.7 2.6 0.00 0.00 0.00 19 1013.4
20260504234239 65 176 4.3 8.7 0.00 0.00 0.00 19 1013.6
20260504233735 65 164 3.5 7.0 0.00 0.00 0.00 19 1013.6
20260504233231 66 162 2.6 7.0 0.00 0.00 0.00 18 1013.6
20260504232728 66 154 1.7 7.8 0.00 0.00 0.00 17 1013.6
20260504232225 66 265 2.6 7.0 0.00 0.00 0.00 18 1013.6
20260504231722 66 135 0.9 2.6 0.00 0.00 0.00 18 1013.4
20260504231218 66 211 5.2 7.8 0.00 0.00 0.00 17 1013.4
20260504230714 66 178 3.5 8.7 0.00 0.00 0.00 17 1013.3
20260504230213 67 232 7.8 13.0 0.00 0.00 0.00 16 1013.7
20260504225712 68 197 1.7 5.2 0.00 0.00 0.00 16 1013.2
20260504225207 69 221 3.5 5.2 0.00 0.00 0.00 16 1013.3
20260504224705 68 200 4.3 7.0 0.00 0.00 0.00 16 1013.3
20260504224202 68 226 1.7 5.2 0.00 0.00 0.00 16 1013.3
20260504223658 68 172 3.5 6.1 0.00 0.00 0.00 17 1013.7
20260504223154 67 226 6.1 8.7 0.00 0.00 0.00 16 1013.7
20260504222651 67 180 3.5 12.2 0.00 0.00 0.00 16 1013.8
20260504222148 67 306 9.6 14.8 0.00 0.00 0.00 17 1013.3
20260504221645 67 308 2.6 8.7 0.00 0.00 0.00 20 1013.7
20260504221142 68 212 3.5 5.2 0.00 0.00 0.00 20 1013.7
20260504220638 67 211 0.9 5.2 0.00 0.00 0.00 21 1013.7
20260504220136 68 139 1.7 2.6 0.00 0.00 0.00 20 1013.8
20260504215632 68 132 0.0 2.6 0.00 0.00 0.00 21 1013.8
20260504215130 68 137 3.5 6.1 0.00 0.00 0.00 20 1014.1
20260504214626 66 137 1.7 6.1 0.00 0.00 0.00 22 1014.3
20260504214122 66 133 1.7 3.5 0.00 0.00 0.00 22 1014.2
20260504213619 65 254 3.5 7.0 0.00 0.00 0.00 22 1014.4
20260504213116 64 230 3.5 6.1 0.00 0.00 0.00 22 1014.7
20260504212612 64 200 2.6 3.5 0.00 0.00 0.00 22 1014.4
20260504212109 64 15 2.6 3.5 0.00 0.00 0.00 22 1014.9
20260504211606 65 127 1.7 3.5 0.00 0.00 0.00 21 1015.0
20260504211102 64 202 3.5 7.0 0.00 0.00 0.00 21 1015.0
20260504210600 64 191 1.7 6.1 0.00 0.00 0.00 21 1015.2
20260504210056 64 177 2.6 3.5 0.00 0.00 0.00 21 1015.4
20260504205554 65 236 2.6 6.1 0.00 0.00 0.00 21 1015.2
20260504205052 64 155 4.3 6.1 0.00 0.00 0.00 20 1015.4
20260504204549 65 209 3.5 6.1 0.00 0.00 0.00 21 1015.4
20260504204044 64 179 0.9 6.1 0.00 0.00 0.00 22 1015.2
20260504203541 64 170 3.5 6.1 0.00 0.00 0.00 22 1015.5
20260504203038 63 158 4.3 6.1 0.00 0.00 0.00 22 1015.5
20260504202533 65 136 0.9 3.5 0.00 0.00 0.00 21 1015.7
20260504202031 64 166 4.3 6.1 0.00 0.00 0.00 22 1015.5
20260504201528 64 144 0.9 1.7 0.00 0.00 0.00 22 1015.8
20260504201026 64 178 0.9 2.6 0.00 0.00 0.00 20 1016.0
20260504200521 64 144 2.6 3.5 0.00 0.00 0.00 20 1015.7
20260504200019 64 50 3.5 5.2 0.00 0.00 0.00 22 1015.8
20260504195515 64 152 0.9 5.2 0.00 0.00 0.00 23 1016.0
20260504195011 64 260 1.7 3.5 0.00 0.00 0.00 22 1016.0
20260504194508 63 118 0.9 7.0 0.00 0.00 0.00 22 1015.9
20260504194003 65 181 1.7 2.6 0.00 0.00 0.00 22 1015.8
20260504193500 65 149 0.9 7.0 0.00 0.00 0.00 22 1015.8
20260504192959 64 154 2.6 5.2 0.00 0.00 0.00 21 1016.0
20260504192456 64 207 4.3 7.8 0.00 0.00 0.00 20 1015.9
20260504191955 65 265 3.5 5.2 0.00 0.00 0.00 19 1015.9
20260504191452 64 260 0.9 2.6 0.00 0.00 0.00 21 1016.0
20260504190947 64 193 0.9 3.5 0.00 0.00 0.00 21 1016.3
20260504190443 64 137 0.9 2.6 0.00 0.00 0.00 22 1016.2
20260504185940 65 153 1.7 3.5 0.00 0.00 0.00 21 1016.2
20260504185437 64 138 0.9 2.6 0.00 0.00 0.00 20 1016.0
20260504184933 63 3 0.9 2.6 0.00 0.00 0.00 23 1016.2
20260504184429 64 129 0.9 5.2 0.00 0.00 0.00 22 1016.2
20260504183925 65 213 1.7 5.2 0.00 0.00 0.00 21 1016.3
20260504183422 66 113 1.7 1.7 0.00 0.00 0.00 22 1016.5
20260504182920 66 87 0.0 3.5 0.00 0.00 0.00 21 1016.4
20260504182417 63 206 0.9 2.6 0.00 0.00 0.00 26 1016.3
20260504181914 65 131 1.7 2.6 0.00 0.00 0.00 25 1016.2
20260504181412 65 220 4.3 5.2 0.00 0.00 0.00 24 1016.3
20260504180910 64 182 3.5 7.0 0.00 0.00 0.00 24 1016.6
20260504180408 66 178 3.5 3.5 0.00 0.00 0.00 23 1016.6
20260504175906 64 174 0.9 2.6 0.00 0.00 0.00 26 1016.9
20260504175402 63 124 1.7 12.2 0.00 0.00 0.00 26 1016.9
20260504174900 64 103 1.7 2.6 0.00 0.00 0.00 26 1016.9
20260504174358 63 196 1.7 5.2 0.00 0.00 0.00 27 1016.8
20260504173855 65 235 3.5 3.5 0.00 0.00 0.00 25 1016.9
20260504173351 63 128 1.7 5.2 0.00 0.00 0.00 28 1016.9
20260504172849 64 163 1.7 3.5 0.00 0.00 0.00 29 1017.0
20260504172345 64 135 1.7 3.5 0.00 0.00 0.00 30 1017.0
20260504171841 64 153 2.6 5.2 0.00 0.00 0.00 28 1017.1
20260504171338 63 183 1.7 2.6 0.00 0.00 0.00 28 1016.9
20260504170835 62 162 1.7 2.6 0.00 0.00 0.00 31 1017.0
20260504170332 64 171 2.6 3.5 0.00 0.00 0.00 30 1017.1
20260504160251 58 169 0.9 2.6 0.00 0.00 0.00 34 1017.3